This is the latest recevied weather packets stored in our database for station/object DORR-WX. If no packets are shown the sender has not sent any weather packets the latest 1 day(s).
| Time | Temp. | Humidity | Pressure | Rain* | Wind** | Luminosity | Snow |
|---|---|---|---|---|---|---|---|
| 1778058111 | 3.33° C | 64% | 985.8 hPa | 0 mm | - | - | - |
| 1778057173 | 3.33° C | 62% | 985.3 hPa | 0 mm | - | - | - |
| 1778056287 | 3.33° C | 64% | 985.7 hPa | 0 mm | - | - | - |
| 1778055372 | 3.89° C | 64% | 985.7 hPa | 0 mm | - | - | - |
| 1778054512 | 3.89° C | 64% | 985.7 hPa | 0 mm | - | - | - |
| 1778052691 | 3.89° C | 63% | 985.5 hPa | 0 mm | - | - | - |
| 1778051772 | 4.44° C | 63% | 985.5 hPa | 0 mm | - | - | - |
| 1778050902 | 5° C | 63% | 985.5 hPa | 0 mm | - | - | - |
| 1778049972 | 5° C | 69% | 985.9 hPa | 0 mm | - | - | - |
| 1778049090 | 5° C | 69% | 985.9 hPa | 0 mm | - | - | - |
| 1778048172 | 5.56° C | 69% | 985.9 hPa | 0 mm | - | - | - |
| 1778047322 | 5.56° C | 69% | 985.9 hPa | 0 mm | - | - | - |
| 1778044571 | 5.56° C | 68% | 985.8 hPa | 0 mm | - | - | - |
| 1778043710 | 6.11° C | 68% | 985.8 hPa | 0 mm | - | - | - |
| 1778042773 | 6.11° C | 60% | 986.8 hPa | 0 mm | - | - | - |
| 1778041888 | 6.11° C | 63% | 986.2 hPa | 0 mm | - | - | - |
| 1778040972 | 6.67° C | 63% | 986.2 hPa | 0 mm | - | - | - |
| 1778040115 | 6.67° C | 63% | 986.2 hPa | 0 mm | - | - | - |
| 1778039170 | 6.67° C | 58% | 985.8 hPa | 0 mm | - | - | - |
| 1778037372 | 6.67° C | 59% | 985.7 hPa | 0 mm | - | - | - |
| 1778036519 | 6.67° C | 59% | 985.7 hPa | 0 mm | - | - | - |
| 1778035571 | 6.67° C | 52% | 985.9 hPa | 0 mm | - | - | - |
| 1778034689 | 7.22° C | 48% | 985.9 hPa | 0 mm | - | - | - |
| 1778033771 | 7.22° C | 48% | 985.9 hPa | 0 mm | - | - | - |
| 1778031970 | 8.33° C | 43% | 985.6 hPa | 0 mm | - | - | - |
* Rain latest hour (hover to see other rain measurements)
** Current wind speed in m/s (hover to see current wind gust speed)